Regional Weather Roundup
Issued by NWS

Home | Current Version | Previous Version | Graphics & Text | Print | Product List | Glossary On
Versions: 1 2 3 4 5 6 7 8 9 10 11 12 13 14 15 16 17 18 19 20 21 22 23 24 25 26 27 28 29 30 31 32 33 34 35 36 37 38 39 40 41 42 43 44 45 46 47 48 49 50
000
ASUS43 KOAX 240702
RWRNE

WEATHER ROUNDUP FOR NEBRASKA
NATIONAL WEATHER SERVICE OMAHA NE
200 AM CDT FRI OCT 24 2014

NOTES: SATELLITE DATA IS BEING USED TO AUGMENT CLOUD COVER ABOVE
       12000 FEET.
       "FAIR" INDICATES FEW OR NO CLOUDS BELOW 12,000 FEET WITH NO
       SIGNIFICANT WEATHER AND/OR OBSTRUCTIONS TO VISIBILITY.

  * THESE STATIONS DO NOT REPORT WEATHER SUCH AS RAIN...SNOW OR FOG.

NEZ001>004-019>022-054>056-240800-
NEBRASKA PANHANDLE

CITY           SKY/WX    TMP DP  RH WIND       PRES   REMARKS
SCOTTSBLUFF    MOCLDY    46  36  68 N7        30.01F
ALLIANCE       PTCLDY    40  32  73 CALM      29.99F
CHADRON        MOCLDY    40  34  79 CALM      29.94F
KIMBALL        MOCLDY    47  34  59 W8        30.07S
SIDNEY         PTCLDY    49  34  56 W8        30.06R
$$

NEZ057>060-069>072-079>082-240800-
SOUTHWEST NEBRASKA

CITY           SKY/WX    TMP DP  RH WIND       PRES   REMARKS
NORTH PLATTE   PTCLDY    49  47  93 NW3       29.99S
IMPERIAL       MOCLDY    51  40  65 SW10      30.02S
LEXINGTON      PTCLDY    59  56  89 SW10      29.99S
MCCOOK         PTCLDY    56  53  90 SW5       30.02S FOG
OGALLALA       PTCLDY    41  36  81 W6        30.01R
$$

NEZ005>010-023>029-035>040-094-240800-
NORTH CENTRAL NEBRASKA

CITY           SKY/WX    TMP DP  RH WIND       PRES   REMARKS
VALENTINE      MOCLDY    42  36  79 SW8       29.92S
AINSWORTH      PTCLDY    50  40  68 W6        29.92R
BROKEN BOW     PTCLDY    56  52  86 CALM      29.96S
O`NEILL        CLEAR     54  53  95 SW9       29.90F
ORD            PTCLDY    55  52  89 CALM      29.94S
THEDFORD       PTCLDY    50  40  70 SW3       29.96S
$$

NEZ041-046>049-061>064-073>077-083>087-240800-
SOUTH CENTRAL NEBRASKA

CITY           SKY/WX    TMP DP  RH WIND       PRES   REMARKS
GRAND ISLAND   FAIR      59  55  87 S13       29.98F
AURORA         CLEAR     58  57  97 S10       29.98F
HASTINGS       CLEAR     57  54  89 S8        29.99F FOG
HEBRON         CLEAR     61  57  87 S7        30.00F
HOLDREGE       FAIR      55  54  94 SW10      30.00S
KEARNEY *      CLEAR     54  52  94 S7        30.00S
YORK           CLEAR     57  55  94 S9        29.99S
$$

NEZ011>018-030>034-042>045-240800-
NORTHEAST NEBRASKA

CITY           SKY/WX    TMP DP  RH WIND       PRES   REMARKS
NORFOLK        PTCLDY    57  54  89 S13       29.94S
ALBION         PTCLDY    54  51  91 SE6       29.96S FOG
BLAIR          PTCLDY    57  51  80 S10       29.98S
COLUMBUS *     PTCLDY    57  52  82 S9        29.98S
FREMONT        CLEAR     57  49  76 SE5       29.98F
TEKAMAH        PTCLDY    49  46  90 SE7       29.97F
WAYNE          PTCLDY    53  49  87 S5        29.94F
$$

NEZ050>053-065>068-078-088>093-240800-
SOUTHEAST NEBRASKA

CITY           SKY/WX    TMP DP  RH WIND       PRES   REMARKS
LINCOLN        CLEAR     54  51  90 S6        30.00F
OMAHA EPPLEY   PTCLDY    55  50  83 SE10      30.00S
BEATRICE       CLEAR     58  56  94 S8        30.02S
FALLS CITY     MOCLDY    59  58  96 S10       30.02F FOG
NEBRASKA CITY  PTCLDY    56  56 100 SW8       30.01S FOG
PLATTSMOUTH    PTCLDY    56  53  90 S6        30.01S
$$

NEZ044-045-051>053-067-240800-
OMAHA AREA

CITY           SKY/WX    TMP DP  RH WIND       PRES   REMARKS
OMAHA EPPLEY   PTCLDY    55  50  83 SE10      30.00S
BLAIR          PTCLDY    57  51  80 S10       29.98S
FREMONT        CLEAR     57  49  76 SE5       29.98F
OFFUTT AFB     PTCLDY    53  53 100 E3        30.00S
PLATTSMOUTH    PTCLDY    56  53  90 S6        30.01S
WAHOO          FAIR      51  47  87 CALM      29.97F
$$



USA.gov is the U.S. government's official web portal to all federal, state and local government web resources and services.